• In France
  • List of Countries
  • For 7 days
  • Water Temperature
  • Satellite Maps
  • Weather Map
  • Weather Widgets
  • user-avatar
    Login

    Hourly Weather Gomel

    Today, 21 June, Thursday

    Time Temperature Precipitation Wind Pressure Humidity
    00:00 +17°C° 0 mm 2 mps 751 mmHg 83%
    01:00 +17°C° 0 mm 2 mps 751 mmHg 86%
    02:00 +16°C° 0 mm 1 mps 751 mmHg 88%
    03:00 +16°C° 0 mm 1 mps 751 mmHg 88%
    04:00 +18°C° 0 mm 1 mps 751 mmHg 88%
    05:00 +18°C° 0 mm 1 mps 752 mmHg 87%
    06:00 +20°C° 0 mm 1 mps 752 mmHg 81%
    07:00 +21°C° 0 mm 1 mps 752 mmHg 74%
    08:00 +23°C° 0 mm 1 mps 752 mmHg 68%
    09:00 +25°C° 0 mm 1 mps 751 mmHg 63%
    10:00 +26°C° 0 mm 2 mps 751 mmHg 58%
    11:00 +27°C° 0 mm 2 mps 751 mmHg 53%
    12:00 +28°C° 0 mm 2 mps 750 mmHg 52%
    13:00 +28°C° 0 mm 2 mps 750 mmHg 50%
    14:00 +29°C° 0 mm 2 mps 749 mmHg 49%
    15:00 +29°C° 0 mm 2 mps 749 mmHg 51%
    16:00 +29°C° 0 mm 2 mps 749 mmHg 54%
    17:00 +28°C° 0 mm 2 mps 748 mmHg 57%
    18:00 +27°C° 0 mm 2 mps 748 mmHg 62%
    19:00 +26°C° 0 mm 2 mps 747 mmHg 67%
    20:00 +24°C° 0 mm 3 mps 747 mmHg 72%
    21:00 +24°C° 0 mm 3 mps 747 mmHg 73%
    22:00 +22°C° 0 mm 3 mps 747 mmHg 74%
    23:00 +22°C° 0 mm 4 mps 747 mmHg 75%

    Tomorrow, 22 June, Friday

    Time Temperature Precipitation Wind Pressure Humidity
    00:00 +21°C° 0 mm 4 mps 746 mmHg 77%
    01:00 +21°C° 0 mm 4 mps 746 mmHg 79%
    02:00 +21°C° 0 mm 4 mps 746 mmHg 81%
    03:00 +21°C° 0 mm 4 mps 745 mmHg 82%
    04:00 +21°C° 0 mm 4 mps 745 mmHg 83%
    05:00 +20°C° 0 mm 5 mps 744 mmHg 84%
    06:00 +22°C° 0.2 mm 5 mps 744 mmHg 82%
    07:00 +23°C° 0.2 mm 5 mps 744 mmHg 79%
    08:00 +24°C° 0.2 mm 6 mps 744 mmHg 77%
    09:00 +26°C° 1.2 mm 6 mps 744 mmHg 77%
    10:00 +26°C° 1.2 mm 6 mps 745 mmHg 78%
    11:00 +26°C° 1.2 mm 6 mps 745 mmHg 78%
    12:00 +23°C° 1 mm 6 mps 745 mmHg 81%
    13:00 +22°C° 1 mm 5 mps 745 mmHg 84%
    14:00 +20°C° 1 mm 5 mps 746 mmHg 88%
    15:00 +20°C° 0.2 mm 4 mps 746 mmHg 84%
    16:00 +20°C° 0.2 mm 4 mps 746 mmHg 81%
    17:00 +19°C° 0.2 mm 4 mps 747 mmHg 77%
    18:00 +18°C° 0 mm 3 mps 747 mmHg 78%
    19:00 +17°C° 0 mm 3 mps 747 mmHg 79%
    20:00 +17°C° 0 mm 3 mps 747 mmHg 79%
    21:00 +16°C° 0 mm 3 mps 747 mmHg 79%
    22:00 +16°C° 0 mm 3 mps 747 mmHg 78%
    23:00 +14°C° 0 mm 3 mps 747 mmHg 78%

    Day after tomorrow, 23 June, Saturday

    Time Temperature Precipitation Wind Pressure Humidity
    00:00 +14°C° 0 mm 3 mps 747 mmHg 78%
    01:00 +14°C° 0 mm 3 mps 747 mmHg 78%
    02:00 +14°C° 0 mm 3 mps 747 mmHg 78%
    03:00 +13°C° 0.1 mm 3 mps 747 mmHg 79%
    04:00 +13°C° 0.1 mm 3 mps 747 mmHg 80%
    05:00 +13°C° 0.1 mm 4 mps 747 mmHg 81%
    06:00 +12°C° 1 mm 4 mps 747 mmHg 85%
    07:00 +12°C° 1 mm 4 mps 747 mmHg 89%
    08:00 +12°C° 1 mm 4 mps 747 mmHg 93%
    09:00 +12°C° 1.6 mm 4 mps 747 mmHg 93%
    10:00 +11°C° 1.6 mm 4 mps 747 mmHg 93%
    11:00 +11°C° 1.6 mm 4 mps 747 mmHg 93%
    12:00 +11°C° 0.5 mm 4 mps 747 mmHg 92%
    13:00 +12°C° 0.5 mm 4 mps 747 mmHg 91%
    14:00 +12°C° 0.5 mm 4 mps 747 mmHg 90%
    15:00 +12°C° 0.2 mm 4 mps 746 mmHg 89%
    16:00 +12°C° 0.2 mm 3 mps 746 mmHg 87%
    17:00 +13°C° 0.2 mm 3 mps 746 mmHg 86%
    18:00 +12°C° 0 mm 3 mps 746 mmHg 87%
    19:00 +13°C° 0 mm 2 mps 746 mmHg 88%
    20:00 +13°C° 0 mm 2 mps 746 mmHg 89%
    21:00 +13°C° 0 mm 2 mps 746 mmHg 89%
    22:00 +13°C° 0 mm 2 mps 746 mmHg 90%
    23:00 +12°C° 0 mm 2 mps 746 mmHg 90%

    24 June, Sunday

    Time Temperature Precipitation Wind Pressure Humidity
    00:00 +12°C° 0.2 mm 2 mps 746 mmHg 91%
    01:00 +12°C° 0.2 mm 2 mps 746 mmHg 91%
    02:00 +12°C° 0.2 mm 2 mps 746 mmHg 92%
    03:00 +12°C° 0 mm 2 mps 746 mmHg 92%
    04:00 +12°C° 0 mm 2 mps 747 mmHg 92%
    05:00 +10°C° 0 mm 2 mps 747 mmHg 92%
    06:00 +13°C° 0 mm 2 mps 747 mmHg 87%
    07:00 +14°C° 0 mm 3 mps 747 mmHg 82%
    08:00 +16°C° 0 mm 3 mps 747 mmHg 76%
    09:00 +17°C° 0.2 mm 3 mps 747 mmHg 71%
    10:00 +19°C° 0.2 mm 4 mps 748 mmHg 66%
    11:00 +20°C° 0.2 mm 4 mps 748 mmHg 61%
    12:00 +20°C° 0.3 mm 4 mps 748 mmHg 60%
    13:00 +20°C° 0.3 mm 4 mps 748 mmHg 59%
    14:00 +21°C° 0.3 mm 4 mps 748 mmHg 59%
    15:00 +20°C° 0.3 mm 4 mps 748 mmHg 61%
    16:00 +20°C° 0.3 mm 4 mps 749 mmHg 63%
    17:00 +20°C° 0.3 mm 4 mps 749 mmHg 65%
    18:00 +18°C° 0.1 mm 3 mps 749 mmHg 71%
    19:00 +17°C° 0.1 mm 2 mps 749 mmHg 77%
    20:00 +16°C° 0.1 mm 2 mps 750 mmHg 83%
    21:00 +15°C° 0 mm 2 mps 750 mmHg 85%
    22:00 +14°C° 0 mm 2 mps 750 mmHg 88%
    23:00 +13°C° 0 mm 2 mps 751 mmHg 91%

    25 June, Monday

    Time Temperature Precipitation Wind Pressure Humidity
    00:00 +13°C° 0 mm 2 mps 751 mmHg 92%
    01:00 +12°C° 0 mm 2 mps 751 mmHg 92%
    02:00 +12°C° 0 mm 2 mps 751 mmHg 93%
    03:00 +12°C° 0 mm 2 mps 752 mmHg 93%
    04:00 +12°C° 0 mm 2 mps 752 mmHg 92%
    05:00 +12°C° 0 mm 2 mps 752 mmHg 92%
    06:00 +14°C° 0 mm 2 mps 752 mmHg 86%
    07:00 +16°C° 0 mm 2 mps 753 mmHg 79%
    08:00 +17°C° 0 mm 2 mps 753 mmHg 73%
    09:00 +19°C° 0 mm 2 mps 753 mmHg 67%
    10:00 +20°C° 0 mm 3 mps 753 mmHg 62%
    11:00 +21°C° 0 mm 3 mps 753 mmHg 57%
    12:00 +21°C° 0.2 mm 3 mps 753 mmHg 56%
    13:00 +22°C° 0.2 mm 3 mps 753 mmHg 55%
    14:00 +22°C° 0.2 mm 3 mps 753 mmHg 54%
    15:00 +22°C° 0.2 mm 3 mps 753 mmHg 56%
    16:00 +22°C° 0.2 mm 3 mps 753 mmHg 58%
    17:00 +22°C° 0.2 mm 3 mps 753 mmHg 60%
    18:00 +20°C° 0.1 mm 2 mps 753 mmHg 65%
    19:00 +19°C° 0.1 mm 2 mps 753 mmHg 71%
    20:00 +18°C° 0.1 mm 1 mps 753 mmHg 76%
    21:00 +16°C° 0 mm 1 mps 753 mmHg 78%
    22:00 +16°C° 0 mm 1 mps 753 mmHg 79%
    23:00 +15°C° 0 mm 1 mps 753 mmHg 81%

    26 June, Tuesday

    Time Temperature Precipitation Wind Pressure Humidity
    00:00 +15°C° 0 mm 1 mps 754 mmHg 82%
    01:00 +14°C° 0 mm 1 mps 754 mmHg 83%
    02:00 +14°C° 0 mm 1 mps 754 mmHg 84%
    03:00 +14°C° 0 mm 1 mps 754 mmHg 84%
    04:00 +14°C° 0 mm 1 mps 754 mmHg 85%
    05:00 +14°C° 0 mm 1 mps 754 mmHg 86%
    06:00 +16°C° 0.1 mm 1 mps 754 mmHg 80%
    07:00 +19°C° 0.1 mm 1 mps 754 mmHg 75%
    08:00 +21°C° 0.1 mm 1 mps 754 mmHg 69%
    09:00 +21°C° 0.4 mm 2 mps 754 mmHg 66%
    10:00 +23°C° 0.4 mm 2 mps 754 mmHg 62%
    11:00 +24°C° 0.4 mm 2 mps 754 mmHg 59%
    12:00 +24°C° 0.4 mm 2 mps 754 mmHg 58%
    13:00 +24°C° 0.4 mm 2 mps 753 mmHg 58%
    14:00 +24°C° 0.4 mm 2 mps 753 mmHg 57%
    15:00 +24°C° 0.1 mm 2 mps 753 mmHg 58%
    16:00 +24°C° 0.1 mm 1 mps 753 mmHg 59%
    17:00 +24°C° 0.1 mm 1 mps 753 mmHg 59%
    18:00 +23°C° 0.3 mm 1 mps 753 mmHg 65%
    19:00 +21°C° 0.3 mm 1 mps 753 mmHg 72%
    20:00 +20°C° 0.3 mm 1 mps 753 mmHg 78%
    21:00 +19°C° 0.6 mm 1 mps 753 mmHg 81%
    22:00 +19°C° 0.6 mm 1 mps 753 mmHg 84%
    23:00 +18°C° 0.6 mm 1 mps 753 mmHg 87%
    Show more